| time (UTC) | temp F | wind direction | speed MPH | gust MPH | rain 1hr in | rain 24hr in | rain mn in | humidity % | barometer mb |
| 20260904122029 | 42 | 215 | 0.0 | 0.0 | 0.00 | 0.00 | 0.00 | 76 | 1025.0 |
| 20260904121026 | 42 | 215 | 0.0 | 0.0 | 0.00 | 0.00 | 0.00 | 75 | 1024.9 |
| 20260904120028 | 42 | 215 | 3.0 | 0.0 | 0.00 | 0.00 | 0.00 | 76 | 1024.8 |
| 20260904115029 | 42 | 215 | 4.0 | 0.0 | 0.00 | 0.00 | 0.00 | 75 | 1024.7 |
| 20260904114026 | 43 | 215 | 4.0 | 0.0 | 0.00 | 0.00 | 0.00 | 74 | 1024.6 |
| 20260904113023 | 43 | 215 | 3.0 | 0.0 | 0.00 | 0.00 | 0.00 | 74 | 1024.5 |
| 20260904112038 | 43 | 215 | 0.0 | 0.0 | 0.00 | 0.00 | 0.00 | 74 | 1024.4 |
| 20260904111018 | 43 | 215 | 0.0 | 0.0 | 0.00 | 0.00 | 0.00 | 74 | 1024.4 |
| 20260904110019 | 43 | 215 | 0.0 | 0.0 | 0.00 | 0.00 | 0.00 | 72 | 1024.9 |
| 20260904105017 | 43 | 215 | 0.0 | 0.0 | 0.00 | 0.00 | 0.00 | 72 | 1024.9 |
| 20260904104036 | 45 | 215 | 0.0 | 0.0 | 0.00 | 0.00 | 0.00 | 71 | 1024.8 |
| 20260904103015 | 45 | 215 | 0.0 | 0.0 | 0.00 | 0.00 | 0.00 | 69 | 1024.6 |
| 20260904102036 | 45 | 215 | 0.0 | 0.0 | 0.00 | 0.00 | 0.00 | 68 | 1024.6 |
| 20260904101034 | 46 | 215 | 2.0 | 0.0 | 0.00 | 0.00 | 0.00 | 68 | 1024.6 |
| 20260904095033 | 46 | 215 | 0.0 | 0.0 | 0.00 | 0.00 | 0.00 | 67 | 1024.6 |
| 20260904094030 | 46 | 215 | 1.0 | 0.0 | 0.00 | 0.00 | 0.00 | 66 | 1024.5 |
| 20260904093031 | 46 | 215 | 2.0 | 0.0 | 0.00 | 0.00 | 0.00 | 65 | 1024.4 |
| 20260904092026 | 47 | 215 | 2.0 | 0.0 | 0.00 | 0.00 | 0.00 | 63 | 1024.4 |
| 20260904091026 | 48 | 215 | 0.0 | 0.0 | 0.00 | 0.00 | 0.00 | 61 | 1024.3 |
| 20260904090023 | 48 | 215 | 0.0 | 0.0 | 0.00 | 0.00 | 0.00 | 60 | 1024.2 |
| 20260904085022 | 48 | 215 | 0.0 | 0.0 | 0.00 | 0.00 | 0.00 | 60 | 1024.3 |
| 20260904084038 | 48 | 215 | 0.0 | 0.0 | 0.00 | 0.00 | 0.00 | 60 | 1024.2 |
| 20260904083022 | 49 | 215 | 0.0 | 0.0 | 0.00 | 0.00 | 0.00 | 58 | 1024.3 |
| 20260904082020 | 49 | 215 | 0.0 | 0.0 | 0.00 | 0.00 | 0.00 | 58 | 1024.2 |
| 20260904081036 | 49 | 215 | 0.0 | 0.0 | 0.00 | 0.00 | 0.00 | 58 | 1024.1 |
| 20260904080033 | 50 | 215 | 0.0 | 0.0 | 0.00 | 0.00 | 0.00 | 56 | 1024.2 |
| 20260904075034 | 50 | 215 | 0.0 | 0.0 | 0.00 | 0.00 | 0.00 | 56 | 1024.1 |
| 20260904074035 | 49 | 215 | 0.0 | 0.0 | 0.00 | 0.00 | 0.00 | 56 | 1024.2 |
| 20260904073034 | 49 | 215 | 0.0 | 0.0 | 0.00 | 0.00 | 0.00 | 57 | 1024.2 |
| 20260904072032 | 50 | 215 | 0.0 | 0.0 | 0.00 | 0.00 | 0.00 | 55 | 1024.2 |
| 20260904071030 | 51 | 215 | 0.0 | 0.0 | 0.00 | 0.00 | 0.00 | 54 | 1024.3 |
| 20260904065034 | 52 | 215 | 0.0 | 0.0 | 0.00 | 0.00 | 0.00 | 53 | 1024.5 |
| 20260904064029 | 53 | 215 | 0.0 | 0.0 | 0.00 | 0.00 | 0.00 | 50 | 1024.6 |
| 20260904063024 | 53 | 215 | 0.0 | 0.0 | 0.00 | 0.00 | 0.00 | 50 | 1024.6 |
| 20260904062027 | 53 | 215 | 0.0 | 0.0 | 0.00 | 0.00 | 0.00 | 50 | 1024.7 |
| 20260904060031 | 53 | 215 | 0.0 | 0.0 | 0.00 | 0.00 | 0.00 | 49 | 1024.5 |
| 20260904054027 | 53 | 215 | 0.0 | 0.0 | 0.00 | 0.00 | 0.00 | 51 | 1024.5 |
| 20260904053024 | 52 | 215 | 0.0 | 0.0 | 0.00 | 0.00 | 0.00 | 51 | 1024.5 |
| 20260904052027 | 52 | 215 | 0.0 | 0.0 | 0.00 | 0.00 | 0.00 | 52 | 1024.4 |
| 20260904051023 | 51 | 215 | 0.0 | 0.0 | 0.00 | 0.00 | 0.00 | 55 | 1024.2 |
| 20260904050039 | 51 | 215 | 0.0 | 0.0 | 0.00 | 0.00 | 0.00 | 53 | 1024.4 |
| 20260904045035 | 50 | 215 | 0.0 | 0.0 | 0.00 | 0.00 | 0.00 | 55 | 1024.3 |
| 20260904044034 | 50 | 215 | 3.0 | 0.0 | 0.00 | 0.00 | 0.00 | 55 | 1024.3 |
| 20260904043037 | 51 | 215 | 4.0 | 0.0 | 0.00 | 0.00 | 0.00 | 53 | 1024.4 |
| 20260904042033 | 52 | 215 | 2.0 | 0.0 | 0.00 | 0.00 | 0.00 | 52 | 1024.3 |
| 20260904041031 | 52 | 215 | 1.0 | 0.0 | 0.00 | 0.00 | 0.00 | 53 | 1024.3 |
| 20260904040029 | 52 | 215 | 2.0 | 0.0 | 0.00 | 0.00 | 0.00 | 51 | 1024.5 |
| 20260904034030 | 55 | 138 | 0.0 | 0.0 | 0.00 | 0.00 | 0.00 | 46 | 1024.4 |
| 20260904033027 | 57 | 138 | 0.0 | 0.0 | 0.00 | 0.00 | 0.00 | 44 | 1024.3 |
| 20260904032023 | 58 | 137 | 0.0 | 0.0 | 0.00 | 0.00 | 0.00 | 43 | 1024.3 |
| 20260904025024 | 58 | 243 | 0.0 | 0.0 | 0.00 | 0.00 | 0.00 | 42 | 1023.9 |
| 20260904023026 | 58 | 242 | 1.0 | 0.0 | 0.00 | 0.00 | 0.00 | 43 | 1023.7 |
| 20260904021028 | 60 | 243 | 0.0 | 0.0 | 0.00 | 0.00 | 0.00 | 41 | 1023.7 |
| 20260904020026 | 60 | 242 | 0.0 | 0.0 | 0.00 | 0.00 | 0.00 | 39 | 1023.5 |
| 20260904015022 | 61 | 243 | 0.0 | 0.0 | 0.00 | 0.00 | 0.00 | 39 | 1023.5 |
| 20260904014037 | 62 | 242 | 0.0 | 0.0 | 0.00 | 0.00 | 0.00 | 38 | 1023.4 |
| 20260904013035 | 63 | 243 | 0.0 | 0.0 | 0.00 | 0.00 | 0.00 | 36 | 1023.4 |
| 20260904012018 | 63 | 242 | 0.0 | 0.0 | 0.00 | 0.00 | 0.00 | 38 | 1023.5 |
| 20260904011037 | 64 | 242 | 0.0 | 0.0 | 0.00 | 0.00 | 0.00 | 35 | 1023.4 |
| 20260904010037 | 65 | 148 | 0.0 | 0.0 | 0.00 | 0.00 | 0.00 | 34 | 1023.5 |
| 20260904005032 | 66 | 209 | 0.0 | 0.0 | 0.00 | 0.00 | 0.00 | 32 | 1023.5 |
| 20260904004033 | 67 | 258 | 0.0 | 0.0 | 0.00 | 0.00 | 0.00 | 33 | 1023.4 |
| 20260904003029 | 68 | 295 | 1.0 | 0.0 | 0.00 | 0.00 | 0.00 | 32 | 1023.4 |
| 20260904001031 | 68 | 206 | 0.0 | 0.0 | 0.00 | 0.00 | 0.00 | 30 | 1023.5 |
| 20260904000026 | 69 | 221 | 1.0 | 0.0 | 0.00 | 0.00 | 0.00 | 30 | 1023.5 |
| 20260903235026 | 70 | 313 | 1.0 | 0.0 | 0.00 | 0.00 | 0.00 | 30 | 1023.5 |
| 20260903234024 | 71 | 246 | 0.0 | 0.0 | 0.00 | 0.00 | 0.00 | 31 | 1023.7 |
| 20260903233021 | 71 | 198 | 0.0 | 0.0 | 0.00 | 0.00 | 0.00 | 29 | 1022.9 |
| 20260903232016 | 71 | 194 | 1.0 | 0.0 | 0.00 | 0.00 | 0.00 | 30 | 1023.0 |
| 20260903230022 | 71 | 5 | 1.0 | 0.0 | 0.00 | 0.00 | 0.00 | 29 | 1023.2 |
| 20260903225039 | 72 | 188 | 1.0 | 0.0 | 0.00 | 0.00 | 0.00 | 27 | 1023.3 |
| 20260903224034 | 72 | 213 | 1.0 | 0.0 | 0.00 | 0.00 | 0.00 | 29 | 1023.3 |
| 20260903223029 | 73 | 253 | 0.0 | 0.0 | 0.00 | 0.00 | 0.00 | 27 | 1023.3 |
| 20260903222033 | 72 | 259 | 1.0 | 0.0 | 0.00 | 0.00 | 0.00 | 27 | 1023.3 |
| 20260903221029 | 73 | 214 | 0.0 | 0.0 | 0.00 | 0.00 | 0.00 | 28 | 1023.8 |
| 20260903220027 | 73 | 126 | 1.0 | 0.0 | 0.00 | 0.00 | 0.00 | 28 | 1023.6 |
| 20260903214027 | 72 | 236 | 1.0 | 0.0 | 0.00 | 0.00 | 0.00 | 29 | 1023.9 |
| 20260903213027 | 72 | 221 | 2.0 | 0.0 | 0.00 | 0.00 | 0.00 | 30 | 1024.0 |
| 20260903212022 | 72 | 307 | 2.0 | 0.0 | 0.00 | 0.00 | 0.00 | 30 | 1024.4 |
| 20260903211019 | 71 | 111 | 1.0 | 0.0 | 0.00 | 0.00 | 0.00 | 30 | 1024.4 |
| 20260903210038 | 71 | 272 | 1.0 | 0.0 | 0.00 | 0.00 | 0.00 | 32 | 1024.4 |
| 20260903205019 | 71 | 266 | 2.0 | 0.0 | 0.00 | 0.00 | 0.00 | 32 | 1024.6 |
| 20260903204017 | 70 | 113 | 3.0 | 0.0 | 0.00 | 0.00 | 0.00 | 34 | 1024.5 |
| 20260903203039 | 71 | 286 | 1.0 | 0.0 | 0.00 | 0.00 | 0.00 | 33 | 1024.8 |
| 20260903200019 | 69 | 117 | 3.0 | 0.0 | 0.00 | 0.00 | 0.00 | 36 | 1024.6 |
| 20260903194017 | 69 | 237 | 2.0 | 0.0 | 0.00 | 0.00 | 0.00 | 35 | 1024.9 |
| 20260903193038 | 69 | 117 | 1.0 | 0.0 | 0.00 | 0.00 | 0.00 | 37 | 1024.7 |
| 20260903190040 | 69 | 326 | 0.0 | 0.0 | 0.00 | 0.00 | 0.00 | 38 | 1025.1 |
| 20260903185038 | 68 | 136 | 3.0 | 0.0 | 0.00 | 0.00 | 0.00 | 39 | 1025.1 |
| 20260903182034 | 68 | 263 | 1.0 | 0.0 | 0.00 | 0.00 | 0.00 | 41 | 1025.2 |
| 20260903181034 | 67 | 214 | 1.0 | 0.0 | 0.00 | 0.00 | 0.00 | 42 | 1025.2 |
| 20260903180029 | 68 | 241 | 1.0 | 0.0 | 0.00 | 0.00 | 0.00 | 40 | 1025.3 |
| 20260903175024 | 67 | 154 | 1.0 | 0.0 | 0.00 | 0.00 | 0.00 | 42 | 1025.5 |
| 20260903173028 | 66 | 134 | 1.0 | 0.0 | 0.00 | 0.00 | 0.00 | 45 | 1025.4 |
| 20260903172026 | 66 | 169 | 1.0 | 0.0 | 0.00 | 0.00 | 0.00 | 46 | 1025.3 |
| 20260903170025 | 65 | 241 | 0.0 | 0.0 | 0.00 | 0.00 | 0.00 | 47 | 1025.3 |
| 20260903165039 | 64 | 159 | 1.0 | 0.0 | 0.00 | 0.00 | 0.00 | 48 | 1025.3 |
| 20260903164024 | 64 | 222 | 0.0 | 0.0 | 0.00 | 0.00 | 0.00 | 51 | 1025.2 |
| 20260903163041 | 63 | 192 | 2.0 | 0.0 | 0.00 | 0.00 | 0.00 | 52 | 1025.2 |
| 20260903162037 | 63 | 153 | 1.0 | 0.0 | 0.00 | 0.00 | 0.00 | 52 | 1025.1 |
| 20260903160031 | 63 | 155 | 1.0 | 0.0 | 0.00 | 0.00 | 0.00 | 57 | 1025.0 |
| 20260903155031 | 61 | 53 | 1.0 | 0.0 | 0.00 | 0.00 | 0.00 | 59 | 1024.9 |
| 20260903154029 | 59 | 206 | 3.0 | 0.0 | 0.00 | 0.00 | 0.00 | 66 | 1025.0 |
| 20260903152027 | 57 | 40 | 0.0 | 0.0 | 0.00 | 0.00 | 0.00 | 71 | 1025.1 |
| 20260903151028 | 56 | 17 | 0.0 | 0.0 | 0.00 | 0.00 | 0.00 | 74 | 1024.5 |
| 20260903150029 | 54 | 17 | 0.0 | 0.0 | 0.00 | 0.00 | 0.00 | 75 | 1024.6 |
| 20260903145026 | 54 | 355 | 0.0 | 0.0 | 0.00 | 0.00 | 0.00 | 76 | 1024.7 |
| 20260903144021 | 54 | 45 | 0.0 | 0.0 | 0.00 | 0.00 | 0.00 | 75 | 1025.3 |
| 20260903143022 | 55 | 281 | 0.0 | 0.0 | 0.00 | 0.00 | 0.00 | 72 | 1024.5 |
| 20260903142023 | 56 | 265 | 0.0 | 0.0 | 0.00 | 0.00 | 0.00 | 69 | 1024.5 |
| 20260903141021 | 56 | 264 | 0.0 | 0.0 | 0.00 | 0.00 | 0.00 | 71 | 1024.6 |
| 20260903140022 | 55 | 264 | 0.0 | 0.0 | 0.00 | 0.00 | 0.00 | 73 | 1024.6 |
| 20260903135041 | 53 | 265 | 0.0 | 0.0 | 0.00 | 0.00 | 0.00 | 79 | 1024.6 |
| 20260903134040 | 50 | 264 | 0.0 | 0.0 | 0.00 | 0.00 | 0.00 | 85 | 1024.6 |
| 20260903133021 | 47 | 264 | 0.0 | 0.0 | 0.00 | 0.00 | 0.00 | 86 | 1024.6 |
| 20260903132041 | 45 | 265 | 0.0 | 0.0 | 0.00 | 0.00 | 0.00 | 88 | 1024.4 |
| 20260903131036 | 44 | 265 | 2.0 | 0.0 | 0.00 | 0.00 | 0.00 | 88 | 1024.4 |
| 20260903130031 | 44 | 264 | 1.0 | 0.0 | 0.00 | 0.00 | 0.00 | 87 | 1024.4 |
| 20260903125034 | 44 | 265 | 0.0 | 0.0 | 0.00 | 0.00 | 0.00 | 87 | 1024.3 |
| 20260903124030 | 45 | 265 | 0.0 | 0.0 | 0.00 | 0.00 | 0.00 | 87 | 1024.3 |